Starlink 35792

operational
NORAD ID: 67092 Int'l Des: 2025-298 Owner: SPXS Country: US Constellation: starlink
LEOCIRCULAR

关于 Starlink 35792

正在加载描述...

实时位置

正在加载3D地球...

即将过境

高度历史

Altitude vs Time

uPlot chart will show altitude changes over time

两行轨道根数

1 67092C 25298T 25349.44701389 -.00486430 00000+0 -72184-3 0 3499
2 67092 70.0016 242.9398 0006065 271.5445 329.6581 16.05109726 14
Epoch: Dec 15, 2025 • Age: 75 hours

当前状态

高度 269.8 km
速度 7.75 km/s
星下点 15.15°N, 79.13°W
发射日期 Dec 14, 2025
运行时间 3 days
类型 internet

技术详情

分类 Payload
质量 575.00 kg
干质量 530.00 kg
总质量 575.00 kg
长度 0.30 m
直径 4.10 m
跨度 29.00 m
形状 Box + pan
制造商 SPXS
平台类型 Starlink V2MO
阶段状态 In Orbit
所有者/国家 SPXS/US

大型星座

Loading constellations...